Orbital Elements at Epoch 2459200.5 (2020-Dec-17.0) TDB
Reference: JPL 22 (heliocentric ecliptic J2000)
Element | Value | Uncertainty (1-sigma) | Units |
e | .190143393620592 | 4.7507e-08 | |
a | 2.674477981372377 | 1.5032e-08 | au |
q | 2.165943661830682 | 1.319e-07 | au |
i | 9.887137075426079 | 4.9834e-06 | deg |
node | 305.2248913143467 | 2.6356e-05 | deg |
peri | 162.9301396548882 | 3.0094e-05 | deg |
M | 284.8488058416664 | 1.712e-05 | deg |
tp | 2459533.995787210800 (2021-Nov-15.49578721) | 7.7809e-05 | TDB |
period | 1597.55922364907 4.37 | 1.3469e-05 3.688e-08 | d yr |
n | .2253437585729716 | 1.8999e-09 | deg/d |
Q | 3.183012300914071 | 1.7891e-08 | au |
|
| | Orbit Determination Parameters
Additional Information
|